2023/05/16 00:00:00,56.6,11.8
2023/05/16 00:10:00,56.5,11.3
2023/05/16 00:20:00,56.2,11.8
2023/05/16 00:30:00,56.1,11.6
2023/05/16 00:40:00,56.1,11.3
2023/05/16 00:50:00,56.0,11.3
2023/05/16 01:00:00,55.7,10.9
2023/05/16 01:10:00,55.5,11.1
2023/05/16 01:20:00,55.6,11.5
2023/05/16 01:30:00,54.9,11.2
2023/05/16 01:40:00,56.9,11.5
2023/05/16 01:50:00,55.4,11.0
2023/05/16 02:00:00,54.5,10.6
2023/05/16 02:10:00,54.3,10.9
2023/05/16 02:20:00,54.6,10.4
2023/05/16 02:30:00,55.3,10.6
2023/05/16 02:40:00,54.7,10.5
2023/05/16 02:50:00,55.0,10.4
2023/05/16 03:00:00,55.4,10.3
2023/05/16 03:10:00,68.2,10.0
2023/05/16 03:20:00,57.2,10.6
2023/05/16 03:30:00,56.3,10.3
2023/05/16 03:40:00,57.4,10.4
2023/05/16 03:50:00,57.2,10.0
2023/05/16 04:00:00,56.7, 9.8
2023/05/16 04:10:00,56.8, 9.7
2023/05/16 04:20:00,57.0,10.0
2023/05/16 04:30:00,56.8, 9.9
2023/05/16 04:40:00,57.0,10.0
2023/05/16 04:50:00,58.1,10.2
2023/05/16 05:00:00,58.0,10.9
2023/05/16 05:10:00,57.6,10.8
2023/05/16 05:20:00,59.6,10.9
2023/05/16 05:30:00,62.4,11.0
2023/05/16 05:40:00,63.8,11.1
2023/05/16 05:50:00,64.4,11.3
2023/05/16 06:00:00,64.6,11.7
2023/05/16 06:10:00,63.1,12.1
2023/05/16 06:20:00,62.5,12.6
2023/05/16 06:30:00,64.1,13.1
2023/05/16 06:40:00,64.2,13.3
2023/05/16 06:50:00,62.5,14.1
2023/05/16 07:00:00,62.4,15.1
2023/05/16 07:10:00,61.6,15.6
2023/05/16 07:20:00,61.2,16.7
2023/05/16 07:30:00,58.7,17.2
2023/05/16 07:40:00,61.6,17.7
2023/05/16 07:50:00,63.1,18.3
2023/05/16 08:00:00,63.0,19.1
2023/05/16 08:10:00,61.8,19.9
2023/05/16 08:20:00,62.7,21.3
2023/05/16 08:30:00,62.9,22.2
2023/05/16 08:40:00,63.4,23.2
2023/05/16 08:50:00,63.7,24.7
2023/05/16 09:00:00,63.8,25.6
2023/05/16 09:10:00,62.9,26.7
2023/05/16 09:20:00,63.2,27.0
2023/05/16 09:30:00,64.2,27.2
2023/05/16 09:40:00,66.0,27.4
2023/05/16 09:50:00,65.8,28.3
2023/05/16 10:00:00,65.7,28.0
2023/05/16 10:10:00,64.0,28.0
2023/05/16 10:20:00,63.5,29.0
2023/05/16 10:30:00,64.5,28.8
2023/05/16 10:40:00,64.6,29.7
2023/05/16 10:50:00,63.5,30.2
2023/05/16 11:00:00,61.7,30.0
2023/05/16 11:10:00,62.4,29.9
2023/05/16 11:20:00,62.6,30.1
2023/05/16 11:30:00,---,30.1
2023/05/16 11:40:00, 0.0,30.2
2023/05/16 11:50:00, 0.0,30.3
2023/05/16 12:00:00, 0.0,29.4
2023/05/16 12:10:00, 0.0,30.6
2023/05/16 12:20:00, 0.0,30.3
2023/05/16 12:30:00, 0.0,30.0
2023/05/16 12:40:00, 0.0,29.6
2023/05/16 12:50:00, 0.0,29.1
2023/05/16 13:00:00, 0.0,29.7
2023/05/16 13:10:00, 0.0,29.3
2023/05/16 13:20:00, 0.0,28.9
2023/05/16 13:30:00, 0.0,29.3
2023/05/16 13:40:00, 0.0,28.9
2023/05/16 13:50:00, 0.0,28.7
2023/05/16 14:00:00, 0.0,29.3
2023/05/16 14:10:00, 0.0,29.0
2023/05/16 14:20:00, 0.0,29.3
2023/05/16 14:30:00, 0.0,28.6
2023/05/16 14:40:00, 0.0,28.1
2023/05/16 14:50:00, 0.0,28.6
2023/05/16 15:00:00, 0.0,28.9
2023/05/16 15:10:00, 0.0,29.5
2023/05/16 15:20:00, 0.0,29.4
2023/05/16 15:30:00, 0.0,30.0
2023/05/16 15:40:00, 0.0,29.7
2023/05/16 15:50:00, 0.0,29.2
2023/05/16 16:00:00, 0.0,29.0
2023/05/16 16:10:00, 0.0,29.1
2023/05/16 16:20:00, 0.0,28.6
2023/05/16 16:30:00, 0.0,28.6
2023/05/16 16:40:00, 0.0,28.0
2023/05/16 16:50:00, 0.0,27.8
2023/05/16 17:00:00, 0.0,28.0
2023/05/16 17:10:00, 0.0,28.6
2023/05/16 17:20:00, 0.0,27.9
2023/05/16 17:30:00, 0.0,27.6
2023/05/16 17:40:00, 0.0,26.9
2023/05/16 17:50:00, 0.0,26.5
2023/05/16 18:00:00, 0.0,25.5
2023/05/16 18:10:00, 0.0,24.7
2023/05/16 18:20:00, 0.0,24.0
2023/05/16 18:30:00, 0.0,22.4
2023/05/16 18:40:00, 0.0,20.8
2023/05/16 18:50:00, 0.0,19.6
2023/05/16 19:00:00, 0.0,19.3
2023/05/16 19:10:00, 0.0,18.4
2023/05/16 19:20:00, 0.0,17.8
2023/05/16 19:30:00, 0.0,17.6
2023/05/16 19:40:00, 0.0,17.4
2023/05/16 19:50:00, 0.0,17.1
2023/05/16 20:00:00, 0.0,17.6
2023/05/16 20:10:00, 0.0,17.9
2023/05/16 20:20:00, 0.0,17.6
2023/05/16 20:30:00, 0.0,17.6
2023/05/16 20:40:00, 0.0,17.7
2023/05/16 20:50:00, 0.0,17.5
2023/05/16 21:00:00, 0.0,17.8
2023/05/16 21:10:00, 0.0,17.4
2023/05/16 21:20:00, 0.0,17.0
2023/05/16 21:30:00, 0.0,16.9
2023/05/16 21:40:00, 0.0,16.8
2023/05/16 21:50:00, 0.0,17.1
2023/05/16 22:00:00, 0.0,17.2
2023/05/16 22:10:00, 0.0,16.8
2023/05/16 22:20:00, 0.0,17.3
2023/05/16 22:30:00, 0.0,16.8
2023/05/16 22:40:00, 0.0,16.6
2023/05/16 22:50:00, 0.0,16.8
2023/05/16 23:00:00, 0.0,16.7
2023/05/16 23:10:00, 0.0,16.8
2023/05/16 23:20:00, 0.0,17.7
2023/05/16 23:30:00, 0.0,17.2
2023/05/16 23:40:00, 0.0,18.0
2023/05/16 23:50:00, 0.0,17.0
